Previsão horária em Abidzhan

Hoje, 11 Abril, Domingo

Tempo Temperatura Precipitação Vento Pressão Humidade
00:00 +28°C° 0 mm 3 m/s 753 mmHg 84%
01:00 +28°C° 0 mm 3 m/s 752 mmHg 84%
02:00 +28°C° 0 mm 3 m/s 752 mmHg 85%
03:00 +28°C° 0 mm 3 m/s 751 mmHg 86%
04:00 +28°C° 0 mm 3 m/s 752 mmHg 86%
05:00 +28°C° 0 mm 3 m/s 752 mmHg 87%
06:00 +27°C° 0 mm 3 m/s 752 mmHg 87%
07:00 +29°C° 0 mm 3 m/s 753 mmHg 80%
08:00 +30°C° 0 mm 4 m/s 753 mmHg 74%
09:00 +32°C° 0 mm 4 m/s 754 mmHg 67%
10:00 +33°C° 0 mm 4 m/s 754 mmHg 64%
11:00 +34°C° 0 mm 4 m/s 753 mmHg 60%
12:00 +34°C° 0 mm 4 m/s 753 mmHg 56%
13:00 +35°C° 0 mm 4 m/s 753 mmHg 55%
14:00 +35°C° 0 mm 4 m/s 752 mmHg 54%
15:00 +35°C° 0 mm 4 m/s 752 mmHg 53%
16:00 +34°C° 0 mm 4 m/s 752 mmHg 58%
17:00 +33°C° 0 mm 4 m/s 752 mmHg 63%
18:00 +32°C° 0 mm 5 m/s 752 mmHg 68%
19:00 +30°C° 0 mm 4 m/s 753 mmHg 72%
20:00 +30°C° 0 mm 4 m/s 753 mmHg 76%
21:00 +29°C° 0 mm 4 m/s 753 mmHg 80%
22:00 +29°C° 0.2 mm 4 m/s 754 mmHg 82%
23:00 +28°C° 0.2 mm 4 m/s 754 mmHg 84%

Amanhã, 12 Abril, Segunda-feira

Tempo Temperatura Precipitação Vento Pressão Humidade
00:00 +28°C° 0.2 mm 3 m/s 754 mmHg 87%
01:00 +28°C° 0.8 mm 3 m/s 754 mmHg 88%
02:00 +28°C° 0.8 mm 3 m/s 754 mmHg 89%
03:00 +28°C° 0.8 mm 3 m/s 753 mmHg 90%
04:00 +28°C° 0 mm 3 m/s 754 mmHg 89%
05:00 +28°C° 0 mm 3 m/s 754 mmHg 89%
06:00 +28°C° 0 mm 4 m/s 754 mmHg 88%
07:00 +29°C° 0 mm 3 m/s 754 mmHg 83%
08:00 +30°C° 0 mm 3 m/s 755 mmHg 77%
09:00 +31°C° 0 mm 3 m/s 755 mmHg 71%
10:00 +33°C° 0 mm 3 m/s 755 mmHg 65%
11:00 +34°C° 0 mm 4 m/s 754 mmHg 59%
12:00 +36°C° 0 mm 5 m/s 754 mmHg 54%
13:00 +35°C° 0 mm 5 m/s 753 mmHg 54%
14:00 +35°C° 0 mm 5 m/s 753 mmHg 55%
15:00 +35°C° 0 mm 5 m/s 753 mmHg 56%
16:00 +34°C° 0 mm 5 m/s 753 mmHg 61%
17:00 +33°C° 0 mm 5 m/s 753 mmHg 66%
18:00 +32°C° 0 mm 5 m/s 753 mmHg 71%
19:00 +30°C° 0 mm 5 m/s 753 mmHg 74%
20:00 +30°C° 0 mm 5 m/s 754 mmHg 77%
21:00 +29°C° 0 mm 5 m/s 754 mmHg 81%
22:00 +29°C° 0.3 mm 4 m/s 754 mmHg 83%
23:00 +29°C° 0.3 mm 3 m/s 755 mmHg 85%

Depois de amanhã, 13 Abril, Terça-feira

Tempo Temperatura Precipitação Vento Pressão Humidade
00:00 +28°C° 0.3 mm 3 m/s 755 mmHg 87%
01:00 +28°C° 1.5 mm 3 m/s 755 mmHg 88%
02:00 +28°C° 1.5 mm 2 m/s 754 mmHg 88%
03:00 +27°C° 1.5 mm 2 m/s 754 mmHg 89%
04:00 +27°C° 0 mm 2 m/s 754 mmHg 89%
05:00 +27°C° 0 mm 2 m/s 755 mmHg 89%
06:00 +27°C° 0 mm 2 m/s 755 mmHg 89%
07:00 +29°C° 0 mm 3 m/s 755 mmHg 84%
08:00 +30°C° 0 mm 3 m/s 755 mmHg 78%
09:00 +32°C° 0 mm 4 m/s 756 mmHg 73%
10:00 +33°C° 0 mm 4 m/s 756 mmHg 68%
11:00 +33°C° 0 mm 4 m/s 756 mmHg 63%
12:00 +34°C° 0 mm 4 m/s 755 mmHg 59%
13:00 +34°C° 0 mm 4 m/s 755 mmHg 57%
14:00 +35°C° 0 mm 4 m/s 754 mmHg 56%
15:00 +35°C° 0 mm 4 m/s 753 mmHg 55%
16:00 +34°C° 0 mm 4 m/s 754 mmHg 61%
17:00 +32°C° 0 mm 4 m/s 754 mmHg 66%
18:00 +30°C° 0 mm 3 m/s 754 mmHg 72%
19:00 +30°C° 0 mm 3 m/s 754 mmHg 76%
20:00 +29°C° 0 mm 3 m/s 754 mmHg 79%
21:00 +29°C° 0 mm 3 m/s 755 mmHg 83%
22:00 +28°C° 0 mm 3 m/s 755 mmHg 84%
23:00 +28°C° 0 mm 3 m/s 755 mmHg 85%

14 Abril, Quarta-feira

Tempo Temperatura Precipitação Vento Pressão Humidade
00:00 +28°C° 0 mm 3 m/s 755 mmHg 87%
01:00 +28°C° 0.1 mm 3 m/s 755 mmHg 87%
02:00 +28°C° 0.1 mm 2 m/s 754 mmHg 88%
03:00 +27°C° 0.1 mm 2 m/s 754 mmHg 89%
04:00 +27°C° 0 mm 2 m/s 754 mmHg 89%
05:00 +27°C° 0 mm 2 m/s 754 mmHg 90%
06:00 +27°C° 0 mm 2 m/s 754 mmHg 90%
07:00 +28°C° 0 mm 2 m/s 755 mmHg 83%
08:00 +30°C° 0 mm 3 m/s 755 mmHg 75%
09:00 +33°C° 0 mm 3 m/s 756 mmHg 67%
10:00 +34°C° 0 mm 3 m/s 755 mmHg 62%
11:00 +35°C° 0 mm 4 m/s 755 mmHg 57%
12:00 +36°C° 0 mm 5 m/s 755 mmHg 52%
13:00 +36°C° 0 mm 5 m/s 754 mmHg 53%
14:00 +35°C° 0 mm 5 m/s 754 mmHg 54%
15:00 +35°C° 0 mm 5 m/s 753 mmHg 55%
16:00 +34°C° 0 mm 5 m/s 753 mmHg 60%
17:00 +33°C° 0 mm 5 m/s 753 mmHg 66%
18:00 +30°C° 0 mm 5 m/s 753 mmHg 71%
19:00 +30°C° 0 mm 5 m/s 753 mmHg 74%
20:00 +29°C° 0 mm 5 m/s 753 mmHg 77%
21:00 +29°C° 0 mm 5 m/s 753 mmHg 80%
22:00 +29°C° 0 mm 4 m/s 754 mmHg 82%
23:00 +28°C° 0 mm 3 m/s 754 mmHg 83%

15 Abril, Quinta-feira

Tempo Temperatura Precipitação Vento Pressão Humidade
00:00 +28°C° 0 mm 3 m/s 754 mmHg 85%
01:00 +28°C° 0.1 mm 3 m/s 754 mmHg 86%
02:00 +28°C° 0.1 mm 3 m/s 754 mmHg 87%
03:00 +28°C° 0.1 mm 2 m/s 754 mmHg 88%
04:00 +27°C° 0.1 mm 2 m/s 754 mmHg 88%
05:00 +27°C° 0.1 mm 3 m/s 754 mmHg 89%
06:00 +27°C° 0.1 mm 3 m/s 754 mmHg 89%
07:00 +29°C° 0 mm 3 m/s 755 mmHg 81%
08:00 +30°C° 0 mm 3 m/s 755 mmHg 73%
09:00 +33°C° 0 mm 3 m/s 755 mmHg 64%
10:00 +33°C° 0 mm 4 m/s 755 mmHg 61%
11:00 +34°C° 0 mm 4 m/s 755 mmHg 59%
12:00 +34°C° 0 mm 4 m/s 754 mmHg 56%
13:00 +35°C° 0 mm 4 m/s 754 mmHg 55%
14:00 +35°C° 0 mm 4 m/s 753 mmHg 55%
15:00 +35°C° 0 mm 5 m/s 752 mmHg 54%
16:00 +34°C° 0 mm 4 m/s 752 mmHg 59%
17:00 +33°C° 0 mm 4 m/s 753 mmHg 64%
18:00 +30°C° 0 mm 4 m/s 753 mmHg 69%
19:00 +30°C° 0 mm 4 m/s 753 mmHg 73%
20:00 +29°C° 0 mm 4 m/s 753 mmHg 77%
21:00 +29°C° 0 mm 5 m/s 753 mmHg 81%
22:00 +29°C° 0 mm 4 m/s 753 mmHg 82%
23:00 +29°C° 0 mm 4 m/s 753 mmHg 84%

16 Abril, Sexta-feira

Tempo Temperatura Precipitação Vento Pressão Humidade
00:00 +28°C° 0 mm 4 m/s 753 mmHg 86%
01:00 +28°C° 0.2 mm 4 m/s 753 mmHg 86%
02:00 +28°C° 0.2 mm 4 m/s 753 mmHg 86%
03:00 +28°C° 0.2 mm 3 m/s 753 mmHg 87%
04:00 +28°C° 0 mm 3 m/s 753 mmHg 87%
05:00 +28°C° 0 mm 3 m/s 753 mmHg 88%
06:00 +27°C° 0 mm 3 m/s 753 mmHg 89%
07:00 +29°C° 0 mm 4 m/s 754 mmHg 81%
08:00 +30°C° 0 mm 4 m/s 754 mmHg 74%
09:00 +33°C° 0 mm 4 m/s 754 mmHg 67%
10:00 +33°C° 0.1 mm 4 m/s 754 mmHg 65%
11:00 +33°C° 0.1 mm 4 m/s 754 mmHg 64%
12:00 +33°C° 0.1 mm 5 m/s 754 mmHg 62%
13:00 +34°C° 0 mm 5 m/s 753 mmHg 61%
14:00 +34°C° 0 mm 5 m/s 753 mmHg 59%
15:00 +34°C° 0 mm 5 m/s 752 mmHg 57%
16:00 +33°C° 0 mm 4 m/s 752 mmHg 62%
17:00 +32°C° 0 mm 4 m/s 752 mmHg 67%
18:00 +30°C° 0 mm 4 m/s 752 mmHg 71%
19:00 +30°C° 0 mm 4 m/s 753 mmHg 75%
20:00 +29°C° 0 mm 4 m/s 753 mmHg 78%
21:00 +29°C° 0 mm 4 m/s 754 mmHg 81%
22:00 +29°C° 0 mm 4 m/s 754 mmHg 83%
23:00 +28°C° 0 mm 3 m/s 754 mmHg 84%
Mostrar mais